Location: Downe
(51.3167°N, 0.0500°E)
Time: 12:30:11
(UTC+00:00)

Meteor 1-26 Rocket - Pass Details

Date: 17 November 2019
Orbit: 816 x 919 km, 81.3° (Epoch: 15 December)

Event Time Altitude Azimuth Distance (km) Brightness Sun altitude
Rises 05:43:24 0° 347° (NNW) 3,504 7.2 -14.9°
Reaches altitude 10° 05:45:53 10° 349° (N) 2,545 6.5 -14.5°
Maximum altitude 05:51:41 79° 77° (ENE) 881 4.4 -13.6°
Drops below altitude 10° 05:57:16 10° 164° (SSE) 2,457 7.0 -12.7°
Sets 05:59:39 0° 166° (SSE) 3,374 7.8 -12.4°
